Location: Daouli
(14.8671°N, 3.2030°W)
Time: 01:59:50
(UTC+00:00)

CZ-4B R/B - Pass Details

Date: 29 October 2020
Orbit: 808 x 882 km, 99.1° (Epoch: 02 December)

Event Time Altitude Azimuth Distance (km) Brightness Sun altitude
Rises 18:13:40 0° 176° (S) 3,470 6.5 -7.5°
Reaches altitude 10° 18:16:06 10° 181° (S) 2,529 5.9 -8.1°
Maximum altitude 18:21:36 55° 258° (WSW) 1,039 4.1 -9.4°
Drops below altitude 10° 18:27:04 10° 335° (NNW) 2,503 5.8 -10.7°
Sets 18:29:29 0° 340° (NNW) 3,431 6.5 -11.3°
